DINO1 KLSV-KLSV

Flight info

Callsign DINO1
Flight time 0h 45m
Altitude 35000
Route KLSV KLSV
Aircraft F22/H-VGDW/C

Departure

Time 2026-04-20 23:37
Airport Nellis Air Force Base (KLSV)

Arrival

Time 2026-04-21 00:22
Airport Nellis Air Force Base (KLSV)
Time Latitude Longitude Altitude Speed Heading
2026-04-20 23:22 36.23204 -115.04526 1886 ft 0 kts 42°
2026-04-20 23:28 36.23205 -115.04525 1876 ft 2 kts 42°
2026-04-20 23:28 36.23221 -115.04484 1878 ft 9 kts 116°
2026-04-20 23:28 36.23180 -115.04426 1879 ft 9 kts 133°
2026-04-20 23:29 36.23132 -115.04422 1878 ft 7 kts 227°
2026-04-20 23:29 36.23093 -115.04465 1878 ft 9 kts 221°
2026-04-20 23:29 36.23030 -115.04534 1878 ft 14 kts 221°
2026-04-20 23:29 36.22955 -115.04614 1879 ft 14 kts 219°
2026-04-20 23:30 36.22906 -115.04666 1880 ft 14 kts 221°
2026-04-20 23:30 36.22831 -115.04725 1879 ft 12 kts 148°
2026-04-20 23:30 36.22876 -115.04658 1879 ft 21 kts 24°
2026-04-20 23:31 36.23071 -115.04493 1880 ft 36 kts 42°
2026-04-20 23:31 36.23256 -115.04288 1880 ft 36 kts 41°
2026-04-20 23:31 36.23364 -115.04172 1880 ft 0 kts 41°
2026-04-20 23:34 36.23384 -115.04150 1880 ft 13 kts 41°
2026-04-20 23:34 36.23479 -115.04046 1883 ft 23 kts 41°
2026-04-20 23:34 36.23618 -115.03894 1881 ft 27 kts 39°
2026-04-20 23:34 36.23807 -115.03690 1882 ft 38 kts 41°
2026-04-20 23:35 36.24004 -115.03478 1883 ft 37 kts 40°
2026-04-20 23:35 36.24401 -115.03158 1882 ft 32 kts
2026-04-20 23:35 36.24528 -115.03137 1881 ft 9 kts 30°
2026-04-20 23:36 36.24558 -115.03074 1882 ft 9 kts 88°
2026-04-20 23:36 36.24559 -115.02935 1882 ft 23 kts 90°
2026-04-20 23:36 36.24553 -115.02729 1881 ft 25 kts 91°
2026-04-20 23:36 36.24472 -115.02729 1884 ft 33 kts 219°
2026-04-20 23:37 36.23795 -115.03437 1988 ft 225 kts 218°
2026-04-20 23:37 36.22631 -115.04785 2612 ft 136 kts 202°
2026-04-20 23:37 36.21909 -115.05605 3741 ft 170 kts 217°
2026-04-20 23:37 36.21080 -115.06470 3953 ft 136 kts 213°
2026-04-20 23:38 36.20383 -115.07122 3682 ft 138 kts 206°
2026-04-20 23:38 36.19690 -115.07521 3957 ft 149 kts 222°
2026-04-20 23:38 36.19241 -115.09568 3905 ft 375 kts 288°
2026-04-20 23:38 36.21032 -115.09483 4240 ft 353 kts 60°
2026-04-20 23:39 36.21521 -115.06161 3528 ft 470 kts 108°
2026-04-20 23:39 36.18880 -115.03407 3354 ft 562 kts 162°
2026-04-20 23:39 36.15137 -115.01914 3467 ft 567 kts 163°
2026-04-20 23:39 36.11385 -115.00411 3730 ft 565 kts 157°
2026-04-20 23:40 36.09432 -114.96631 3630 ft 571 kts 85°
2026-04-20 23:40 36.09463 -114.96329 3663 ft 571 kts 85°
2026-04-20 23:40 36.09794 -114.92994 3652 ft 542 kts 87°
2026-04-20 23:41 36.10170 -114.88689 3641 ft 490 kts 86°
2026-04-20 23:41 36.10546 -114.84675 3687 ft 446 kts 86°
2026-04-20 23:41 36.10779 -114.81026 3692 ft 405 kts 104°
2026-04-20 23:41 36.09828 -114.77898 3091 ft 377 kts 117°
2026-04-20 23:42 36.09825 -114.74739 1563 ft 393 kts 65°
2026-04-20 23:42 36.11076 -114.71644 1276 ft 427 kts 69°
2026-04-20 23:42 36.12555 -114.67295 1262 ft 669 kts 69°
2026-04-20 23:42 36.14211 -114.62130 1895 ft 627 kts 131°
2026-04-20 23:43 36.14351 -114.58458 2603 ft 544 kts 38°
2026-04-20 23:43 36.14991 -114.54644 1350 ft 483 kts 109°
2026-04-20 23:43 36.14380 -114.51113 1820 ft 499 kts 107°
2026-04-20 23:43 36.13322 -114.46518 2084 ft 602 kts 108°
2026-04-20 23:44 36.12070 -114.41274 2342 ft 665 kts 108°
2026-04-20 23:44 36.10596 -114.35561 2084 ft 701 kts 113°
2026-04-20 23:44 36.07804 -114.31527 1812 ft 656 kts 143°
2026-04-20 23:44 36.03552 -114.28265 1748 ft 773 kts 149°
2026-04-20 23:45 35.98927 -114.25624 2806 ft 708 kts 164°
2026-04-20 23:45 35.95312 -114.21932 3500 ft 726 kts 123°
2026-04-20 23:45 35.91718 -114.17109 3877 ft 805 kts 102°
2026-04-20 23:45 35.92006 -114.12182 12348 ft 390 kts 85°
2026-04-20 23:46 35.91868 -114.08571 15831 ft 408 kts 102°
2026-04-20 23:46 35.93860 -114.05382 12906 ft 612 kts 46°
2026-04-20 23:46 35.97380 -114.00946 9842 ft 815 kts 47°
2026-04-20 23:46 36.01320 -113.95559 7069 ft 899 kts 50°
2026-04-20 23:47 36.05300 -113.89393 5272 ft 893 kts 60°
2026-04-20 23:47 36.04930 -113.83060 1518 ft 709 kts 93°
2026-04-20 23:47 36.02405 -113.78704 1574 ft 620 kts 146°
2026-04-20 23:47 35.98538 -113.77800 1600 ft 582 kts 167°
2026-04-20 23:48 35.96398 -113.74629 2038 ft 477 kts 142°
2026-04-20 23:48 35.93930 -113.73220 1679 ft 370 kts 79°
2026-04-20 23:48 35.92596 -113.71328 1574 ft 312 kts 193°
2026-04-20 23:48 35.89991 -113.71411 1353 ft 434 kts 159°
2026-04-20 23:49 35.87837 -113.70231 1922 ft 369 kts 83°
2026-04-20 23:49 35.86822 -113.67406 1415 ft 368 kts 115°
2026-04-20 23:49 35.85038 -113.65719 1422 ft 321 kts 155°
2026-04-20 23:49 35.83125 -113.65222 1429 ft 304 kts 148°
2026-04-20 23:50 35.82006 -113.64463 2563 ft 163 kts 196°
2026-04-20 23:50 35.81511 -113.63733 2506 ft 180 kts 57°
2026-04-20 23:50 35.82587 -113.62563 2565 ft 208 kts 37°
2026-04-20 23:50 35.83296 -113.62750 4254 ft 136 kts 212°
2026-04-20 23:51 35.82310 -113.63701 2334 ft 282 kts 276°
2026-04-20 23:51 35.80978 -113.65953 2125 ft 492 kts 183°
2026-04-20 23:51 35.78791 -113.65334 5693 ft 123 kts 305°
2026-04-20 23:51 35.79103 -113.65717 4485 ft 111 kts 165°
2026-04-20 23:52 35.77528 -113.64667 2885 ft 355 kts 153°
2026-04-20 23:52 35.74771 -113.62719 2618 ft 539 kts 150°
2026-04-20 23:52 35.71063 -113.62883 2823 ft 674 kts 215°
2026-04-20 23:52 35.68320 -113.64959 3838 ft 726 kts 199°
2026-04-20 23:53 35.63918 -113.67771 6060 ft 682 kts 170°
2026-04-20 23:53 35.62024 -113.64655 7404 ft 562 kts 31°
2026-04-20 23:53 35.65608 -113.63203 8460 ft 543 kts 13°
2026-04-20 23:53 35.69223 -113.62174 9225 ft 506 kts 13°
2026-04-20 23:54 35.72467 -113.61209 9489 ft 463 kts 13°
2026-04-20 23:54 35.75504 -113.60345 8927 ft 447 kts 12°
2026-04-20 23:54 35.78512 -113.59612 8306 ft 435 kts 10°
2026-04-20 23:54 35.81472 -113.59019 7733 ft 425 kts 360°
2026-04-20 23:55 35.84283 -113.58954 8238 ft 383 kts
2026-04-20 23:55 35.86820 -113.58901 8783 ft 348 kts
2026-04-20 23:55 35.89147 -113.58873 8817 ft 325 kts 347°
2026-04-20 23:55 35.90655 -113.60493 7883 ft 289 kts 286°
2026-04-20 23:56 35.90707 -113.62536 5202 ft 204 kts 221°
2026-04-20 23:56 35.88841 -113.63918 2101 ft 386 kts 193°
2026-04-20 23:56 35.86040 -113.64681 2197 ft 425 kts 225°
2026-04-20 23:56 35.86722 -113.67053 1665 ft 359 kts 300°
2026-04-20 23:57 35.87821 -113.69703 1583 ft 363 kts 278°
2026-04-20 23:57 35.89464 -113.71560 1892 ft 332 kts 356°
2026-04-20 23:57 35.91956 -113.71402 1299 ft 377 kts
2026-04-20 23:57 35.94071 -113.72667 1571 ft 311 kts 266°
2026-04-20 23:58 35.95105 -113.74048 1376 ft 255 kts 14°
2026-04-20 23:58 35.96761 -113.75054 1754 ft 301 kts 274°
2026-04-20 23:58 35.97973 -113.77197 1523 ft 365 kts 340°
2026-04-20 23:58 36.00221 -113.78494 2010 ft 370 kts 351°
2026-04-20 23:59 36.02767 -113.78841 2881 ft 367 kts 327°
2026-04-20 23:59 36.04676 -113.81077 2580 ft 393 kts 285°
2026-04-20 23:59 36.05056 -113.84738 1541 ft 456 kts 276°
2026-04-20 23:59 36.06299 -113.88559 1275 ft 500 kts 312°
2026-04-21 00:00 36.09261 -113.90084 1269 ft 413 kts 274°
2026-04-21 00:00 36.10617 -113.92411 1341 ft 358 kts 356°
2026-04-21 00:00 36.13043 -113.93328 1290 ft 357 kts 293°
2026-04-21 00:00 36.13344 -113.96248 1212 ft 354 kts 252°
2026-04-21 00:01 36.12454 -113.98260 1389 ft 174 kts 348°
2026-04-21 00:01 36.13740 -113.98872 1195 ft 267 kts 341°
2026-04-21 00:01 36.16356 -113.98554 1213 ft 483 kts
2026-04-21 00:01 36.19077 -114.00068 1429 ft 458 kts 348°
2026-04-21 00:02 36.19476 -114.02904 1238 ft 414 kts 235°
2026-04-21 00:02 36.17919 -114.05596 2348 ft 342 kts 290°
2026-04-21 00:02 36.16379 -114.07641 1274 ft 429 kts 198°
2026-04-21 00:02 36.13745 -114.09550 1293 ft 461 kts 198°
2026-04-21 00:03 36.10939 -114.11813 1192 ft 506 kts 198°
2026-04-21 00:03 36.07236 -114.12448 1198 ft 556 kts 192°
2026-04-21 00:03 36.03502 -114.14052 1389 ft 581 kts 219°
2026-04-21 00:03 36.02382 -114.18287 1527 ft 527 kts 246°
2026-04-21 00:04 36.01584 -114.22858 1256 ft 552 kts 264°
2026-04-21 00:04 36.03120 -114.26890 1192 ft 557 kts 327°
2026-04-21 00:04 36.05135 -114.30451 1499 ft 506 kts 306°
2026-04-21 00:04 36.08086 -114.32586 1289 ft 519 kts 349°
2026-04-21 00:05 36.11365 -114.33751 1262 ft 458 kts 316°
2026-04-21 00:05 36.13261 -114.36622 1210 ft 419 kts 304°
2026-04-21 00:05 36.13894 -114.39802 1424 ft 374 kts 265°
2026-04-21 00:05 36.13758 -114.42995 1190 ft 367 kts 264°
2026-04-21 00:06 36.13935 -114.46093 1177 ft 360 kts 278°
2026-04-21 00:06 36.14345 -114.49029 1453 ft 304 kts 234°
2026-04-21 00:06 36.13231 -114.48827 1933 ft 199 kts 77°
2026-04-21 00:06 36.14281 -114.47925 2023 ft 221 kts 347°
2026-04-21 00:07 36.15828 -114.48632 2715 ft 278 kts 296°
2026-04-21 00:07 36.15448 -114.51026 2811 ft 379 kts 210°
2026-04-21 00:07 36.12834 -114.49992 2926 ft 528 kts 120°
2026-04-21 00:07 36.13486 -114.45649 2659 ft 587 kts 25°
2026-04-21 00:08 36.16791 -114.47415 2364 ft 571 kts 286°
2026-04-21 00:08 36.16039 -114.51917 2256 ft 551 kts 208°
2026-04-21 00:08 36.12769 -114.51112 2820 ft 534 kts 118°
2026-04-21 00:08 36.13861 -114.47330 4472 ft 478 kts 15°
2026-04-21 00:09 36.16472 -114.49053 5065 ft 466 kts 283°
2026-04-21 00:09 36.14788 -114.51818 3469 ft 473 kts 198°
2026-04-21 00:09 36.12284 -114.50081 2648 ft 512 kts 88°
2026-04-21 00:09 36.14838 -114.48837 1923 ft 495 kts 300°
2026-04-21 00:10 36.14954 -114.52656 1945 ft 469 kts 279°
2026-04-21 00:10 36.15186 -114.55251 1239 ft 434 kts 277°
2026-04-21 00:10 36.14139 -114.59223 1255 ft 356 kts 219°
2026-04-21 00:10 36.13370 -114.61866 1210 ft 364 kts 302°
2026-04-21 00:11 36.13991 -114.64419 1243 ft 291 kts 220°
2026-04-21 00:11 36.12648 -114.65945 1409 ft 260 kts 245°
2026-04-21 00:11 36.12036 -114.68286 1345 ft 308 kts 244°
2026-04-21 00:11 36.10735 -114.69952 2439 ft 278 kts 199°
2026-04-21 00:12 36.09414 -114.71579 2702 ft 278 kts 256°
2026-04-21 00:12 36.09373 -114.74013 2873 ft 289 kts 266°
2026-04-21 00:12 36.08891 -114.76013 3376 ft 253 kts 230°
2026-04-21 00:12 36.07860 -114.77696 3966 ft 228 kts 225°
2026-04-21 00:13 36.06889 -114.79127 4551 ft 207 kts 224°
2026-04-21 00:13 36.05983 -114.80516 4675 ft 209 kts 243°
2026-04-21 00:13 36.05849 -114.82512 2812 ft 295 kts 286°
2026-04-21 00:13 36.06637 -114.84929 3622 ft 324 kts 288°
2026-04-21 00:14 36.07387 -114.87688 4034 ft 344 kts 276°
2026-04-21 00:14 36.07517 -114.90613 4338 ft 310 kts 263°
2026-04-21 00:14 36.07423 -114.92970 4252 ft 245 kts 254°
2026-04-21 00:14 36.07132 -114.94926 4094 ft 221 kts 271°
2026-04-21 00:15 36.07370 -114.96800 3830 ft 216 kts 273°
2026-04-21 00:15 36.07547 -114.97991 3717 ft 211 kts 275°
2026-04-21 00:15 36.07727 -114.99838 3612 ft 214 kts 257°
2026-04-21 00:15 36.07596 -115.01737 3440 ft 228 kts 260°
2026-04-21 00:16 36.07540 -115.03030 3317 ft 223 kts 265°
2026-04-21 00:16 36.07520 -115.05327 2992 ft 174 kts 250°
2026-04-21 00:16 36.07379 -115.06296 2788 ft 166 kts 258°
2026-04-21 00:16 36.07375 -115.07704 2526 ft 156 kts 266°
2026-04-21 00:17 36.07466 -115.09326 2505 ft 207 kts 267°
2026-04-21 00:17 36.07434 -115.11037 2451 ft 191 kts 260°
2026-04-21 00:17 36.07386 -115.12622 2262 ft 180 kts 266°
2026-04-21 00:17 36.07375 -115.14269 2237 ft 181 kts 263°
2026-04-21 00:18 36.07367 -115.15845 2558 ft 127 kts 258°
2026-04-21 00:18 36.07330 -115.16607 4038 ft 125 kts 264°
2026-04-21 00:18 36.07677 -115.18073 4133 ft 228 kts 304°
2026-04-21 00:18 36.09124 -115.19266 4628 ft 255 kts 357°
2026-04-21 00:19 36.10790 -115.18825 5003 ft 255 kts 41°
2026-04-21 00:19 36.12163 -115.17337 4830 ft 257 kts 48°
2026-04-21 00:19 36.13423 -115.15798 4686 ft 246 kts 52°
2026-04-21 00:19 36.14541 -115.14182 4734 ft 249 kts 54°
2026-04-21 00:20 36.16151 -115.12545 4688 ft 395 kts 47°
2026-04-21 00:20 36.18491 -115.09547 4114 ft 512 kts 45°
2026-04-21 00:20 36.20839 -115.06485 4127 ft 493 kts 51°
2026-04-21 00:20 36.23289 -115.02742 3004 ft 620 kts 95°
2026-04-21 00:21 36.23996 -114.99248 3483 ft 328 kts 29°
2026-04-21 00:21 36.25581 -114.99672 3191 ft 206 kts 297°
2026-04-21 00:21 36.25754 -115.01118 2544 ft 164 kts 227°
2026-04-21 00:21 36.25253 -115.01884 2125 ft 162 kts 224°
2026-04-21 00:22 36.24464 -115.02784 1900 ft 144 kts 213°
2026-04-21 00:22 36.23832 -115.03423 1875 ft 90 kts 214°
2026-04-21 00:22 36.23565 -115.03986 1872 ft 71 kts 239°
2026-04-21 00:22 36.23409 -115.04231 1873 ft 17 kts 216°
2026-04-21 00:23 36.23387 -115.04255 1873 ft 0 kts 226°